Location: Eekwerd
(53.3234°N, 6.7984°E)
Time: 16:17:51
(UTC+00:00)

Meteor 2-9 Rocket - Pass Details

Date: 15 May 2026
Orbit: 790 x 893 km, 81.3° (Epoch: 10 June)

Event Time Altitude Azimuth Distance (km) Brightness Sun altitude
Rises 22:30:35 0° 346° (NNW) 3,319 9.1 -16.5°
Reaches altitude 10° 22:32:57 10° 346° (NNW) 2,393 7.9 -16.6°
Maximum altitude 22:38:22 85° 259° (W) 826 4.1 -16.8°
Enters shadow 22:41:21 28° 172° (S) 1,499 4.9 -16.9°
